Flag for Canada Weather past 2 weeks in London, Ontario, Canada

Now
19 °F

Clear.


Feels Like: 14 °F
Forecast: 15 / 38 °F
Wind: 3 mph from Southwest

Location: London Weather Station


UV Index: 5 (Moderate)

Visibility: 15 mi


Pressure: 30.29 "Hg

Humidity: 93%

Dew point: 18 °F

Location of LondonLocation

Historic Weather in London

°F

London temperature yesterday

Maximum temperature yesterday: 34 °F (at 1:00 AM)
Minimum temperature yesterday: 23 °F (at 9:00 PM)
Average temperature yesterday: 28 °F

Past Weeks' High & Low Weather Summary

 TemperatureHumidityPressure
High72 °F (Apr 13, 5:00 PM)100% (Apr 4, 7:00 AM)30.29 "Hg (Apr 4, 7:00 AM)
Low19 °F (Apr 16, 1:00 AM)27% (Apr 11, 3:00 PM)29.36 "Hg (Apr 8, 3:00 AM)
Average41 °F73%29.89 "Hg
* Reported Apr 1 4:00 AM — Apr 16 4:00 AM, London, Weather by CustomWeather, © 2014

Note: Actual official high and low records may vary slightly from our data, if they occured in-between our weather recording intervals... More about our weather records

Advertising

Historic Weather Conditions — Data for Previous 24 hours

 ConditionsComfort  
Time TempWeatherWind HumidityBarometerVisibility
4:00 AM
Apr 16
19 °FClear.3 mph93%30.29 "Hg15 mi
3:00 AM19 °FClear.3 mph86%30.27 "Hg15 mi
2:00 AM19 °FClear.2 mph93%30.27 "Hg15 mi
1:00 AM19 °FClear.3 mph93%30.26 "Hg15 mi
12:00 AM21 °FClear.No wind80%30.24 "Hg15 mi
11:00 PM
Apr 15
23 °FClear.6 mph74%30.23 "Hg15 mi
10:00 PM23 °FPassing clouds.8 mph74%30.20 "Hg15 mi
9:00 PM23 °FScattered clouds.8 mph74%30.16 "Hg15 mi
7:00 PM25 °FScattered clouds.15 mph69%30.08 "Hg15 mi
6:00 PM27 °FSnow flurries. Scattered clouds.17 mph74%30.05 "Hg10 mi
5:00 PM27 °FSnow flurries. Broken clouds.15 mph69%30.02 "Hg15 mi
4:00 PM27 °FSnow flurries. Partly sunny.14 mph80%30.00 "Hg3 mi
3:00 PM27 °FSnow flurries. Partly sunny.14 mph80%29.98 "Hg4 mi
2:00 PM27 °FMostly cloudy.15 mph74%29.94 "Hg10 mi
1:00 PM27 °FSnow flurries. Mostly cloudy.16 mph80%29.92 "Hg5 mi
12:00 PM27 °FSnow flurries. Overcast.14 mph80%29.89 "Hg5 mi
11:00 AM27 °FOvercast.16 mph80%29.85 "Hg8 mi
10:00 AM28 °FOvercast.16 mph80%29.84 "Hg15 mi
9:00 AM28 °FLight snow. Mostly cloudy.15 mph86%29.79 "Hg12 mi
8:00 AM28 °FLight snow. Overcast.15 mph93%29.75 "Hg1 mi
7:00 AM30 °FLight snow. Overcast.10 mph93%29.75 "Hg1 mi
6:00 AM30 °FLight snow. Low clouds.10 mph93%29.71 "Hg1 mi
5:00 AM30 °FLight snow. Ice fog.8 mph93%29.70 "Hg1 mi
Weather by CustomWeather, © 2014

See weather overview